NOAA 16 DEB, 41162

Orbit data source: Space-Track

NOAA 16 DEB, 41162 is space debris in SSO originally from a launch on Thu, 21 Sep 2000 UTC launched from the Air Force Western Test Range (AFWTR). Debris objects in space refer to the collection of defunct objects orbiting the Earth. Examples of debris include non-operational satellites, rocket bodies, and fragments generated from explosions, collisions, or faulty payload assembly.

Loading next visibility...
Identifier
41162, 2000-055CV
Orbit
SSO
Country
Flag of USUS
Related business
Manufacturer
Unknown
Mission
Spacecraft
Bus & Motor
Unknown
Mass
Unknown
Launch date (UTC)
2000-09-21 (26 years ago)
Launch vehicle
Unknown
Launch site
Air Force Western Test Range (AFWTR)
Object type
Payload
Rocket body
Debris
Shape & HBR
Unknown shape, 0.1 m
Radar Cross Section
Medium (>0.1 m² and <1 m²)

Expand to show TLE details & history
Last TLE update: 4 days ago

TLE from 4 days ago
0 NOAA 16 DEB
1 41162U 00055CV  26233.14277425  .00002691  00000-0  10953-2 0  9990
2 41162  98.7144 297.3526 0026413   6.8200 353.3335 14.28147393552958
Epoch: 2026-08-21T03:25Z
TLE epoch observation values (Epoch: 2026-08-21T03:25:35.695Z)
Latitude
-0.00004°
Longitude
-83.5179°
Altitude
782.026 km
Speed
7.473 km/s
True Right ascension
19h 49m 24s
True Declination
0° 00' 00"
Sunlit
Object was in full shadow at epoch
Visualization orbit readout
Latitude
Unknown
Longitude
Unknown
Altitude
Unknown
Speed
Unknown
Apparent Right ascension
Unknown
Apparent Declination
Unknown
Sunlit
N/A
Visualization observer readout
Local Sidereal Time
01:52:08
Azimuth
Unknown
Elevation
Unknown
Doppler factor
Unknown
Orbital elements
Apogee altitude
814.025 km
Perigee altitude
776.131 km
Semi-major axis
7,173.215 km
Eccentricity
0.00264
Inclination
98.7144°
RAAN
297.3526°
Arg. of periapsis
6.82°
True anomaly
353.29825°
Mean anomaly
353.3335°
Eccentric anomaly
353.31589°
Mean motion
3.5725 °/min
Orbital period
100.77 mins
BSTAR
0.0010953
Loading maneuver chart data...
Computing Atmospheric mass density...
Loading historical data...
Loading historical data...
Loading historical data...
Loading historical data...
Loading historical data...
Loading historical data...
Loading historical data...

Documentation

Showing up to 5 results
|